Regional Weather Roundup
Issued by NWS Charleston, SC

Current Version | Previous Version | Text Only | Print | Product List | Glossary Off
Versions: 1 2 3 4 5 6 7 8 9 10 11 12 13 14 15 16 17 18 19 20 21 22 23 24 25 26 27 28 29 30 31 32 33 34 35 36 37 38 39 40 41 42 43 44 45 46 47 48 49 50

048
ASUS42 KCHS 232012
RWRCHS

REGIONAL WEATHER ROUNDUP
NATIONAL WEATHER SERVICE CHARLESTON SC
400 PM EDT TUE MAY 23 2017

NOTE: "FAIR" INDICATES FEW OR NO CLOUDS BELOW 12,000 FEET WITH NO
SIGNIFICANT WEATHER AND/OR OBSTRUCTIONS TO VISIBILITY.

NOT ALL STATIONS ARE QUALITY CONTROLLED. USE DATA WITH CAUTION...
ESPECIALLY DEWPOINT OBSERVATIONS.

SCZ027-030-031-034>040-042>050-232100-
...SOUTHEAST SOUTH CAROLINA...

CITY           SKY/WX    TMP DP  RH WIND       PRES   REMARKS
N CHARLESTON   CLOUDY    74  70  87 NW9       29.77F
WATERFRONT PRK   N/A     73  72  96 VRB3      29.76F
JOHNS ISLAND   FAIR      75  73  94 VRB3      29.77F
PINOPOLIS        N/A     70  70 100 SW6       29.69F
MONCKS CORNER  CLOUDY    68  68 100 S3        29.77F
SUMMERVILLE    CLOUDY    70  68  94 S3        29.78F
BEAUFORT MCAS  CLOUDY    77  74  90 W6        29.76F
BEAUFORT ARPT  FAIR      79  72  78 SW5       29.77S
HILTON HEAD IS MOSUNNY   79  73  83 S12       29.78F
WALTERBORO     CLOUDY    70  64  83 W3        29.79S
ALLENDALE      LGT RAIN  70  66  88 CALM      29.77F

...SOUTHERN MIDLANDS AND PEE DEE...

CITY           SKY/WX    TMP DP  RH WIND       PRES   REMARKS
GEORGETOWN     MOCLDY    72  70  94 SW10      29.77F
KINGSTREE      CLOUDY   N/A N/A N/A SW5       29.75S
ORANGEBURG     LGT RAIN  71  68  90 SW5       29.76F
BARNWELL       LGT RAIN  72  70  94 W5        29.78R
AIKEN          LGT RAIN  68  66  94 SW6       29.80F
MANNING        MOCLDY    72  70  94 SW7       29.75S
COLUMBIA       LGT RAIN  73  69  87 W5        29.74F FOG
SUMTER         NOT AVBL
FLORENCE       LGT RAIN  73  71  93 W8        29.72F
MYRTLE BEACH   SHOWER    73  70  88 W10       29.77
N MYRTLE BEACH LGT RAIN  72  70  93 SW8G23    29.75S FOG

$$

GAZ063-065-086>088-099>101-113>116-118-119-134>141-150-232100-
...SOUTHEAST GEORGIA...

CITY           SKY/WX    TMP DP  RH WIND       PRES   REMARKS
SAVANNAH ARPT  CLOUDY    79  70  74 S9        29.76F
HUNTER AAF     SUNNY     78  74  87 S7        29.74S
FORT STEWART   NOT AVBL
STATESBORO     LGT RAIN  70  70 100 CALM      29.76F
SYLVANIA       CLOUDY    69  69  99 NE3       29.77F
CLAXTON        DRIZZLE  N/A N/A N/A N5        29.74F

...CSRA...CENTRAL AND FAR SOUTHEAST GEORGIA...

CITY           SKY/WX    TMP DP  RH WIND       PRES   REMARKS
THOMSON        LGT RAIN  67  66  96 CALM      29.77F
AUGUSTA-BUSH   HVY RAIN  71  67  87 CALM      29.75F FOG
AUGUSTA-DANIEL LGT RAIN  69  64  84 CALM      29.76F
SWAINSBORO     HVY RAIN  68  68 100 E7        29.77F
VIDALIA        TSTM      70  70 100 SW6       29.78R
EASTMAN        LGT RAIN  73  73 100 SE5       29.77F
HAZLEHURST     LGT RAIN  70  70 100 CALM      29.76S
ALMA           CLOUDY    76  73  91 SW3       29.74S
WAYCROSS       CLOUDY    84  76  76 SW14G26   29.74F HX  93
JESUP          MOCLDY    82  68  61 SW13G20   29.76S
BAXLEY         TSTM      73  73 100 W5        29.76R
BRUNSWICK      CLOUDY    79  77  94 S5        29.78F
SAINT SIMONS   TSTM      77  71  82 W6        29.78R

$$

SCZ027-028-034-036>038-045-046-048>050-GAZ119-141-232100-
...LAKE AND SUPPLEMENTAL COASTAL OBSERVATIONS...

STATION/POSITION TIME  TEMP    WIND        PRES    WAVE   SWELL
                       AIR SEA DIR/SP/G            HT/PER HT/PER/DIR
                 (UTC) (F)     (DEG/KT/KT) (MB)    (FT/S) (FT/S/D)
WINYAH BAY       NOT AVBL
LAKE MURRAY      1920   72     250/  5/ 10 1006.8
ACE BASIN NERRS  NOT AVBL
FORT PULASKI     1948   79     210/  8/ 12 1008.0F
SAPELO ISLAND    1900   81     210/ 11     1009.0

$$

ANZ835-935-AMZ111-154-330-350-352-354-370-450-454-472-232100-
...C-MAN AND BUOY OBSERVATIONS...

STATION/POSITION TIME  TEMP    WIND        PRES    WAVE   SWELL
                       AIR SEA DIR/SP/G            HT/PER HT/PER/DIR
                 (UTC) (F)     (DEG/KT/KT) (MB)    (FT/S) (FT/S/D)
BUOY 41004       1950   77 78  220/ 17/ 23 1008.4F   5/ 7
BUOY 41008       1850   78 78  170/ 16/ 19 1008.5    3/ 5   2/ 60/ 8
FOLLY BEACH CMAN 1900   72     280/  4/  6 1009.4F
CAPERS NEARSHORE 1908   75 77  280/ 16/ 21 1008.6R
FRIPP NEARSHORE  1908   78 79  210/ 16/ 21 1007.9F


STATION/POSITION TIME  TEMP    WIND        PRES    WAVE   SWELL
                       AIR SEA DIR/SP/G            HT/PER HT/PER/DIR
                 (UTC) (F)     (DEG/KT/KT) (MB)    (FT/S) (FT/S/D)
5E ST. MARYS GA  1930      79                N/A     3/ 4
FRYING PAN BUOY  1950   78 78  210/ 19/ 23 1007.9F   6/ 7   3/220/14
BUOY 41025       1950   75 77  220/ 21/ 25 1007.5F   5/ 6   2/120/ 9
CAPE LOOKOUT NC  1900   76     200/ 14/ 18 1007.6F
BUOY 41002       1850   77 76  190/ 17/ 21 1013.2    4/ 5   2/100/12
BUOY 41010       1950   80 79  190/ 14/ 17 1012.4F   4/ 6   2/ 60/ 8
ST AUGUSTINE FL  2000   87 80  200/ 14/ 19 1009.2F


$$




USA.gov is the U.S. government's official web portal to all federal, state and local government web resources and services.